EDT,Max TemperatureF,Mean TemperatureF,Min TemperatureF,Max Dew PointF,MeanDew PointF,Min DewpointF,Max Humidity, Mean Humidity, Min Humidity, Max Sea Level PressureIn, Mean Sea Level PressureIn, Min Sea Level PressureIn, Max VisibilityMiles, Mean VisibilityMiles, Min VisibilityMiles, Max Wind SpeedMPH, Mean Wind SpeedMPH, Max Gust SpeedMPH,PrecipitationIn, CloudCover, Events, WindDirDegrees
2013-6-1,91,76,60,67,62,59,100,80,38,29.99,29.95,29.87,10,5,0,14,2,21,0.00,0,Fog,179
2013-6-2,88,78,68,68,66,64,90,76,48,29.88,29.80,29.72,10,10,10,21,8,29,0.01,2,Rain-Thunderstorm,182
2013-6-3,77,66,55,66,60,41,97,78,48,29.88,29.82,29.79,10,9,2,12,4,,0.16,5,Rain,224
2013-6-4,72,59,46,48,41,36,89,52,31,30.12,29.96,29.89,10,10,10,17,6,25,0.00,0,,318
2013-6-5,75,59,45,52,45,36,97,64,29,30.21,30.15,30.10,10,10,10,10,2,,0.00,0,,244
2013-6-6,72,61,50,54,49,42,96,68,34,30.20,30.14,30.09,10,10,10,10,2,,0.09,2,Rain,165
2013-6-7,55,53,51,54,52,48,96,91,86,30.09,29.99,29.83,10,8,2,10,3,18,1.50,8,Rain,36
2013-6-8,73,62,51,59,54,48,97,80,57,30.04,29.82,29.68,10,8,2,14,7,21,0.85,6,Rain,315
2013-6-9,77,64,50,57,52,48,97,72,38,30.19,30.11,30.04,10,9,1,13,3,18,0.00,2,,290
2013-6-10,71,60,50,61,55,48,100,89,59,30.21,30.15,29.99,10,7,1,7,1,,0.91,4,Rain,128
2013-6-11,64,59,55,59,56,53,96,90,78,29.98,29.70,29.59,10,7,1,7,2,,1.27,8,Rain,31
2013-6-12,69,61,51,55,52,49,92,73,52,29.85,29.70,29.58,10,10,10,21,8,33,0.01,6,,307
2013-6-13,57,52,48,55,51,46,100,94,89,29.83,29.78,29.70,10,6,0,7,1,,1.13,7,Fog-Rain,55
2013-6-14,75,62,50,55,50,45,96,73,33,29.83,29.74,29.68,10,10,9,10,5,,0.56,4,Rain,340
2013-6-15,78,62,46,52,46,37,100,77,24,29.97,29.91,29.84,10,6,1,15,1,21,0.00,2,,286
2013-6-16,73,60,48,58,52,47,97,70,48,29.96,29.86,29.72,10,10,10,13,4,,0.00,3,,191
2013-6-17,82,68,54,62,58,53,100,82,37,29.92,29.87,29.81,10,7,1,21,5,36,0.55,3,Rain-Thunderstorm,253
2013-6-18,68,62,55,63,58,55,100,93,78,29.95,29.93,29.90,10,5,0,12,2,,0.41,8,Fog-Rain-Thunderstorm,5
2013-6-19,73,62,50,56,47,33,97,64,24,30.18,30.03,29.93,10,10,4,12,3,16,0.00,1,,334
2013-6-20,79,61,44,56,47,41,100,64,27,30.28,30.23,30.19,10,10,8,10,2,20,0.00,1,,249
2013-6-21,84,67,52,58,53,46,97,64,28,30.27,30.24,30.20,10,10,3,8,2,,0.00,1,,269
2013-6-22,86,70,55,61,57,53,93,65,33,30.24,30.18,30.11,10,10,10,16,4,22,0.00,0,,183
2013-6-23,90,76,63,69,63,57,84,65,48,30.16,30.08,30.00,10,10,10,16,7,21,0.00,1,Rain,178
2013-6-24,93,80,69,69,67,61,94,75,42,30.04,29.98,29.90,10,9,3,14,5,28,0.25,2,Rain-Thunderstorm,218
2013-6-25,91,76,64,70,66,63,100,81,43,29.96,29.87,29.75,10,7,0,15,3,26,0.00,4,Fog-Rain-Thunderstorm,229
2013-6-26,81,73,64,68,65,63,97,77,60,29.85,29.79,29.75,10,10,4,9,4,,0.00,3,,286
2013-6-27,81,72,64,68,66,63,100,85,65,29.85,29.80,29.73,10,9,2,12,2,,0.00,7,,115
2013-6-28,81,70,60,72,65,60,100,90,67,29.69,29.54,29.47,10,8,1,15,6,23,1.40,7,Rain-Thunderstorm,160
2013-6-29,82,76,69,70,68,65,100,85,56,29.71,29.56,29.49,10,8,5,16,5,23,0.03,5,Rain-Thunderstorm,176
2013-6-30,84,76,69,72,69,66,93,80,55,29.93,29.84,29.72,10,9,2,14,7,,0.26,5,Rain-Thunderstorm,186